| time (UTC) | temp F | wind direction | speed knots | gust knots | rain 1hr in | rain 24hr in | rain mn in | humidity % | barometer mb |
| 20260509134511 | 43 | 68 | 0.0 | 0.0 | 0.00 | 0.00 | 0.00 | 79 | 1021.1 |
| 20260509133009 | 42 | 68 | 0.0 | 3.5 | 0.00 | 0.00 | 0.00 | 79 | 1021.0 |
| 20260509131507 | 43 | 98 | 0.0 | 0.9 | 0.00 | 0.00 | 0.00 | 78 | 1020.7 |
| 20260509130006 | 42 | 114 | 0.0 | 1.7 | 0.00 | 0.00 | 0.00 | 80 | 1020.7 |
| 20260509124506 | 42 | 114 | 0.0 | 2.6 | 0.00 | 0.00 | 0.00 | 81 | 1020.4 |
| 20260509123001 | 43 | 58 | 1.7 | 3.5 | 0.00 | 0.00 | 0.00 | 77 | 1020.5 |
| 20260509121612 | 43 | 89 | 0.0 | 2.6 | 0.00 | 0.00 | 0.00 | 79 | 1020.4 |
| 20260509120113 | 43 | 89 | 0.0 | 3.5 | 0.00 | 0.00 | 0.00 | 79 | 1020.5 |
| 20260509114558 | 43 | 109 | 0.9 | 3.5 | 0.00 | 0.00 | 0.00 | 77 | 1020.5 |
| 20260509113056 | 45 | 113 | 0.0 | 2.6 | 0.00 | 0.00 | 0.00 | 75 | 1020.4 |
| 20260509111552 | 45 | 87 | 0.0 | 1.7 | 0.00 | 0.00 | 0.00 | 74 | 1020.4 |
| 20260509110053 | 46 | 88 | 0.0 | 2.6 | 0.00 | 0.00 | 0.00 | 74 | 1020.4 |
| 20260509104544 | 47 | 112 | 0.0 | 0.9 | 0.00 | 0.00 | 0.00 | 73 | 1020.3 |
| 20260509103042 | 47 | 111 | 0.0 | 1.7 | 0.00 | 0.00 | 0.00 | 72 | 1020.3 |
| 20260509101549 | 48 | 111 | 0.0 | 1.7 | 0.00 | 0.00 | 0.00 | 70 | 1020.1 |
| 20260509100042 | 49 | 84 | 0.9 | 3.5 | 0.00 | 0.00 | 0.00 | 69 | 1019.9 |
| 20260509094534 | 49 | 85 | 0.0 | 3.5 | 0.00 | 0.00 | 0.00 | 70 | 1019.8 |
| 20260509093031 | 49 | 71 | 0.0 | 2.6 | 0.00 | 0.00 | 0.00 | 69 | 1019.8 |
| 20260509091533 | 51 | 104 | 0.0 | 0.0 | 0.00 | 0.00 | 0.00 | 66 | 1019.8 |
| 20260509090023 | 53 | 104 | 0.0 | 2.6 | 0.00 | 0.00 | 0.00 | 62 | 1019.7 |
| 20260509084526 | 54 | 150 | 0.9 | 4.3 | 0.00 | 0.00 | 0.00 | 61 | 1019.6 |
| 20260509083019 | 55 | 193 | 0.9 | 7.8 | 0.00 | 0.00 | 0.00 | 60 | 1019.6 |
| 20260509081519 | 55 | 112 | 1.7 | 7.0 | 0.00 | 0.00 | 0.00 | 58 | 1019.6 |
| 20260509080017 | 55 | 109 | 0.9 | 6.1 | 0.00 | 0.00 | 0.00 | 60 | 1019.6 |
| 20260509074516 | 55 | 107 | 2.6 | 5.2 | 0.00 | 0.00 | 0.00 | 60 | 1019.7 |
| 20260509073023 | 55 | 146 | 0.9 | 5.2 | 0.00 | 0.00 | 0.00 | 60 | 1019.6 |
| 20260509071512 | 55 | 145 | 0.0 | 4.3 | 0.00 | 0.00 | 0.00 | 58 | 1019.5 |
| 20260509070008 | 55 | 187 | 0.9 | 4.3 | 0.00 | 0.00 | 0.00 | 59 | 1019.2 |
| 20260509064508 | 55 | 142 | 1.7 | 7.8 | 0.00 | 0.00 | 0.00 | 58 | 1019.3 |
| 20260509063012 | 55 | 139 | 0.0 | 5.2 | 0.00 | 0.00 | 0.00 | 59 | 1019.6 |
| 20260509061506 | 55 | 114 | 1.7 | 3.5 | 0.00 | 0.00 | 0.00 | 58 | 1019.7 |
| 20260509060006 | 55 | 67 | 0.0 | 0.9 | 0.00 | 0.00 | 0.00 | 57 | 1019.8 |
| 20260509054504 | 56 | 67 | 0.9 | 2.6 | 0.00 | 0.00 | 0.00 | 55 | 1019.6 |
| 20260509053002 | 57 | 186 | 0.0 | 6.1 | 0.00 | 0.00 | 0.00 | 54 | 1019.3 |
| 20260509051600 | 58 | 149 | 0.0 | 6.1 | 0.00 | 0.00 | 0.00 | 52 | 1019.2 |
| 20260509050059 | 58 | 143 | 0.9 | 6.1 | 0.00 | 0.00 | 0.00 | 52 | 1019.1 |
| 20260509044557 | 59 | 124 | 1.7 | 5.2 | 0.00 | 0.00 | 0.00 | 50 | 1019.0 |
| 20260509043054 | 60 | 146 | 0.9 | 5.2 | 0.00 | 0.00 | 0.00 | 48 | 1018.7 |
| 20260509041555 | 61 | 163 | 0.9 | 4.3 | 0.00 | 0.00 | 0.00 | 47 | 1018.4 |
| 20260509040119 | 62 | 124 | 2.6 | 8.7 | 0.00 | 0.00 | 0.00 | 45 | 1018.0 |
| 20260509034555 | 62 | 108 | 1.7 | 3.5 | 0.00 | 0.00 | 0.00 | 44 | 1017.8 |
| 20260509033047 | 63 | 158 | 0.9 | 4.3 | 0.00 | 0.00 | 0.00 | 42 | 1017.6 |
| 20260509031544 | 65 | 135 | 0.0 | 4.3 | 0.00 | 0.00 | 0.00 | 40 | 1017.1 |
| 20260509030046 | 67 | 118 | 3.5 | 8.7 | 0.00 | 0.00 | 0.00 | 37 | 1016.8 |
| 20260509024539 | 68 | 160 | 2.6 | 8.7 | 0.00 | 0.00 | 0.00 | 35 | 1016.5 |
| 20260509023037 | 69 | 118 | 6.1 | 10.4 | 0.00 | 0.00 | 0.00 | 33 | 1016.3 |
| 20260509021538 | 70 | 98 | 6.1 | 12.2 | 0.00 | 0.00 | 0.00 | 32 | 1016.2 |
| 20260509020039 | 71 | 115 | 3.5 | 12.2 | 0.00 | 0.00 | 0.00 | 30 | 1016.1 |
| 20260509014532 | 72 | 136 | 3.5 | 9.6 | 0.00 | 0.00 | 0.00 | 28 | 1015.7 |
| 20260509013032 | 73 | 109 | 3.5 | 9.6 | 0.00 | 0.00 | 0.00 | 26 | 1015.5 |
| 20260509011529 | 73 | 139 | 4.3 | 8.7 | 0.00 | 0.00 | 0.00 | 26 | 1015.4 |
| 20260509010035 | 74 | 98 | 4.3 | 10.4 | 0.00 | 0.00 | 0.00 | 25 | 1015.2 |
| 20260509004527 | 74 | 114 | 5.2 | 14.8 | 0.00 | 0.00 | 0.00 | 25 | 1015.1 |
| 20260509003025 | 74 | 98 | 6.1 | 12.2 | 0.00 | 0.00 | 0.00 | 23 | 1015.0 |
| 20260509001524 | 74 | 77 | 4.3 | 13.0 | 0.00 | 0.00 | 0.00 | 24 | 1015.0 |
| 20260509000023 | 75 | 117 | 7.8 | 13.0 | 0.00 | 0.00 | 0.00 | 23 | 1015.0 |
| 20260508234522 | 75 | 118 | 6.1 | 13.9 | 0.00 | 0.00 | 0.00 | 24 | 1015.0 |
| 20260508233022 | 75 | 96 | 5.2 | 11.3 | 0.00 | 0.00 | 0.00 | 24 | 1014.9 |
| 20260508231521 | 76 | 68 | 4.3 | 8.7 | 0.00 | 0.00 | 0.00 | 23 | 1014.9 |
| 20260508230023 | 75 | 72 | 7.0 | 12.2 | 0.00 | 0.00 | 0.00 | 21 | 1014.9 |
| 20260508224518 | 75 | 61 | 6.1 | 13.9 | 0.00 | 0.00 | 0.00 | 22 | 1014.8 |
| 20260508223033 | 75 | 135 | 7.8 | 16.5 | 0.00 | 0.00 | 0.00 | 21 | 1015.0 |
| 20260508221516 | 75 | 77 | 5.2 | 13.0 | 0.00 | 0.00 | 0.00 | 21 | 1014.9 |
| 20260508220020 | 75 | 126 | 7.0 | 12.2 | 0.00 | 0.00 | 0.00 | 19 | 1014.8 |
| 20260508214513 | 74 | 114 | 7.0 | 14.8 | 0.00 | 0.00 | 0.00 | 19 | 1014.9 |
| 20260508213015 | 74 | 102 | 6.1 | 12.2 | 0.00 | 0.00 | 0.00 | 20 | 1014.9 |
| 20260508211511 | 73 | 113 | 7.0 | 13.9 | 0.00 | 0.00 | 0.00 | 22 | 1014.9 |
| 20260508210012 | 72 | 105 | 7.8 | 15.6 | 0.00 | 0.00 | 0.00 | 20 | 1014.8 |
| 20260508204519 | 73 | 103 | 7.8 | 17.4 | 0.00 | 0.00 | 0.00 | 21 | 1014.6 |
| 20260508203008 | 73 | 86 | 8.7 | 20.0 | 0.00 | 0.00 | 0.00 | 21 | 1014.5 |
| 20260508201506 | 74 | 155 | 5.2 | 13.0 | 0.00 | 0.00 | 0.00 | 20 | 1014.3 |
| 20260508200005 | 73 | 38 | 7.8 | 16.5 | 0.00 | 0.00 | 0.00 | 18 | 1014.3 |
| 20260508194502 | 72 | 119 | 7.8 | 17.4 | 0.00 | 0.00 | 0.00 | 16 | 1014.7 |
| 20260508193112 | 73 | 87 | 5.2 | 12.2 | 0.00 | 0.00 | 0.00 | 16 | 1014.7 |
| 20260508191602 | 72 | 116 | 0.9 | 4.3 | 0.00 | 0.00 | 0.00 | 23 | 1014.7 |
| 20260508190057 | 72 | 95 | 0.9 | 5.2 | 0.00 | 0.00 | 0.00 | 23 | 1014.8 |
| 20260508184607 | 70 | 148 | 0.9 | 5.2 | 0.00 | 0.00 | 0.00 | 21 | 1014.6 |
| 20260508183054 | 70 | 106 | 0.0 | 1.7 | 0.00 | 0.00 | 0.00 | 26 | 1014.4 |
| 20260508181559 | 70 | 64 | 0.0 | 2.6 | 0.00 | 0.00 | 0.00 | 28 | 1014.4 |
| 20260508180048 | 69 | 270 | 0.9 | 3.5 | 0.00 | 0.00 | 0.00 | 30 | 1014.5 |
| 20260508174543 | 67 | 68 | 0.0 | 3.5 | 0.00 | 0.00 | 0.00 | 34 | 1014.6 |
| 20260508173040 | 66 | 239 | 0.0 | 4.3 | 0.00 | 0.00 | 0.00 | 36 | 1014.7 |
| 20260508171543 | 65 | 202 | 0.0 | 1.7 | 0.00 | 0.00 | 0.00 | 40 | 1014.8 |
| 20260508170038 | 64 | 53 | 0.0 | 1.7 | 0.00 | 0.00 | 0.00 | 41 | 1014.9 |
| 20260508164533 | 63 | 52 | 0.9 | 2.6 | 0.00 | 0.00 | 0.00 | 42 | 1014.9 |
| 20260508163033 | 61 | 55 | 0.0 | 1.7 | 0.00 | 0.00 | 0.00 | 45 | 1014.9 |
| 20260508161528 | 59 | 94 | 0.9 | 4.3 | 0.00 | 0.00 | 0.00 | 48 | 1015.0 |
| 20260508160049 | 56 | 98 | 0.0 | 1.7 | 0.00 | 0.00 | 0.00 | 54 | 1014.8 |
| 20260508154525 | 55 | 109 | 0.0 | 2.6 | 0.00 | 0.00 | 0.00 | 61 | 1014.8 |
| 20260508153028 | 54 | 67 | 0.0 | 3.5 | 0.00 | 0.00 | 0.00 | 64 | 1014.7 |
| 20260508151524 | 53 | 97 | 0.0 | 1.7 | 0.00 | 0.00 | 0.00 | 62 | 1014.6 |
| 20260508150032 | 52 | 108 | 0.0 | 0.9 | 0.00 | 0.00 | 0.00 | 60 | 1014.6 |
| 20260508144523 | 51 | 108 | 0.0 | 1.7 | 0.00 | 0.00 | 0.00 | 61 | 1014.6 |
| 20260508143027 | 49 | 96 | 0.0 | 1.7 | 0.00 | 0.00 | 0.00 | 65 | 1014.6 |
| 20260508141520 | 48 | 86 | 0.9 | 3.5 | 0.00 | 0.00 | 0.00 | 67 | 1014.5 |
| 20260508140019 | 48 | 77 | 0.0 | 2.6 | 0.00 | 0.00 | 0.00 | 66 | 1014.4 |